TimeCST,TemperatureF,Dew PointF,Humidity,Sea Level PressureIn,VisibilityMPH,Wind Direction,Wind SpeedMPH,Gust SpeedMPH,PrecipitationIn,Events,Conditions,WindDirDegrees,DateUTC
12:53 AM,39.9,32.0,73,30.19,9.0,SE,3.5,-,N/A,,Clear,130,2013-02-09 06:53:00
1:53 AM,41.0,33.1,73,30.17,10.0,SE,8.1,-,N/A,,Clear,140,2013-02-09 07:53:00
2:53 AM,41.0,33.1,73,30.18,10.0,SE,6.9,-,N/A,,Clear,140,2013-02-09 08:53:00
3:53 AM,39.9,33.1,77,30.15,10.0,SE,10.4,-,N/A,,Clear,130,2013-02-09 09:53:00
4:53 AM,41.0,33.1,73,30.13,10.0,SE,12.7,-,N/A,,Clear,140,2013-02-09 10:53:00
5:53 AM,39.9,33.1,77,30.14,10.0,SSE,11.5,-,N/A,,Clear,150,2013-02-09 11:53:00
6:53 AM,39.9,33.1,77,30.14,10.0,SE,10.4,-,N/A,,Partly Cloudy,140,2013-02-09 12:53:00
7:53 AM,39.0,34.0,82,30.15,8.0,SSE,15.0,19.6,N/A,,Mostly Cloudy,150,2013-02-09 13:53:00
8:53 AM,39.9,33.1,77,30.15,8.0,SE,15.0,-,N/A,,Mostly Cloudy,140,2013-02-09 14:53:00
9:53 AM,42.1,33.1,70,30.14,8.0,SSE,15.0,20.7,N/A,,Mostly Cloudy,160,2013-02-09 15:53:00
10:53 AM,43.0,32.0,65,30.09,8.0,SSE,18.4,26.5,N/A,,Mostly Cloudy,150,2013-02-09 16:53:00
11:53 AM,42.1,33.1,70,30.09,8.0,SSE,17.3,25.3,N/A,,Overcast,150,2013-02-09 17:53:00
12:53 PM,41.0,34.0,76,30.04,6.0,SE,11.5,-,0.00,Rain,Light Rain,130,2013-02-09 18:53:00
1:53 PM,41.0,34.0,76,30.01,6.0,SSE,12.7,21.9,0.00,Rain,Light Rain,160,2013-02-09 19:53:00
2:53 PM,41.0,36.0,82,29.98,5.0,SE,13.8,-,0.00,Rain,Light Rain,140,2013-02-09 20:53:00
3:37 PM,41.0,37.4,87,29.96,6.0,SE,11.5,-,0.00,,Overcast,140,2013-02-09 21:37:00
3:53 PM,41.0,37.0,86,29.95,6.0,SE,12.7,-,0.00,,Overcast,130,2013-02-09 21:53:00
4:53 PM,41.0,37.0,86,29.90,5.0,SE,15.0,21.9,N/A,,Overcast,130,2013-02-09 22:53:00
5:19 PM,41.0,37.4,87,29.87,5.0,ESE,11.5,20.7,N/A,,Mostly Cloudy,120,2013-02-09 23:19:00
5:53 PM,41.0,37.0,86,29.86,5.0,SE,11.5,18.4,0.01,Rain,Light Rain,130,2013-02-09 23:53:00
6:12 PM,41.0,37.4,87,29.86,6.0,SE,15.0,20.7,0.00,Rain,Light Rain,140,2013-02-10 00:12:00
6:53 PM,42.1,37.9,85,29.85,7.0,SE,15.0,-,0.00,,Overcast,130,2013-02-10 00:53:00
7:48 PM,42.8,39.2,87,29.85,7.0,SSE,17.3,-,N/A,,Overcast,150,2013-02-10 01:48:00
7:53 PM,42.1,39.0,89,29.86,7.0,SSE,15.0,23.0,N/A,,Overcast,150,2013-02-10 01:53:00
8:36 PM,42.8,39.2,87,29.83,5.0,SSE,13.8,21.9,N/A,,Overcast,150,2013-02-10 02:36:00
8:53 PM,42.1,39.9,92,29.84,4.0,SSE,11.5,-,N/A,,Overcast,150,2013-02-10 02:53:00
9:53 PM,42.1,41.0,96,29.81,5.0,SSE,16.1,-,0.00,,Overcast,150,2013-02-10 03:53:00
10:53 PM,43.0,41.0,93,29.76,4.0,SSE,12.7,24.2,N/A,,Overcast,150,2013-02-10 04:53:00
11:53 PM,44.1,42.1,93,29.75,4.0,SSE,13.8,23.0,0.00,,Light Drizzle,150,2013-02-10 05:53:00